Plymouth, NH

1:18 AM EST on December 03, 2016 (GMT -0500)
Plymouth

Weather History for K1P1 - May, 2012

Change the Weather History Date:

Monday, May 21, 2012

  Actual Average (KLCI) Record (KLCI)
Temperature  
Mean Temperature 62 °F -  
Max Temperature 78 °F 72 °F 90 °F (1989)
Min Temperature 47 °F 46 °F 35 °F (2002)
Degree Days  
Heating Degree Days 2    
Growing Degree Days 12 (Base 50)    
Moisture  
Dew Point 51 °F    
Average Humidity 68    
Maximum Humidity 99    
Minimum Humidity 31    
Precipitation  
Precipitation 0.00 in - - ()
Sea Level Pressure  
Sea Level Pressure 30.21 in    
Wind  
Wind Speed 4 mph (East)    
Max Wind Speed 15 mph    
Max Gust Speed 22 mph    
Visibility 9 miles    
Events Rain    
Averages and records for this station are not official NWS values.
T = Trace of Precipitation, MM = Missing Value Source: NWS Daily Summary

Daily Weather History Graph

Daily Weather History Graph

Search for Another Location

Airport or City:

Trip Planner

Search our weather history database for the weather conditions in past years. The results will help you decide how hot, cold, wet, or windy it might be!

Date:

Astronomy

May. 21, 2012 Rise Set
Actual Time 5:15 AM EDT 8:12 PM EDT
Civil Twilight 4:41 AM EDT 8:46 PM EDT
Nautical Twilight 3:58 AM EDT 9:30 PM EDT
Astronomical Twilight 3:07 AM EDT 10:21 PM EDT
Moon 5:35 AM EDT (5/21) 9:01 PM EDT (5/21)
Length of Visible Light 16h 05m
Length of Day
14h 57m
New Moon, 0% of the Moon is Illuminated
May 21
New Moon
May 28
First Quarter
Jun 4
Full
Jun 11
Last Quarter
Jun 19
New

Hourly Weather History & Observations

Time (EDT) Temp. Dew Point Humidity Pressure Visibility Wind Dir Wind Speed Gust Speed Precip Events Conditions
12:15 AM 57.2 °F 53.8 °F 88% 30.29 in 10.0 mi NNE 3.5 mph - N/A   Clear
12:35 AM 56.3 °F 53.2 °F 89% 30.29 in 10.0 mi Calm Calm - N/A   Clear
12:55 AM 56.3 °F 52.7 °F 88% 30.29 in 10.0 mi ENE 4.6 mph - N/A   Clear
1:15 AM 55.8 °F 52.9 °F 90% 30.28 in 10.0 mi Calm Calm - N/A   Clear
1:35 AM 54.3 °F 52.5 °F 94% 30.28 in 10.0 mi Calm Calm - N/A   Clear
1:55 AM 53.8 °F 52.3 °F 95% 30.28 in 10.0 mi Calm Calm - N/A   Clear
2:15 AM 53.8 °F 52.0 °F 94% 30.27 in 10.0 mi Calm Calm - N/A   Clear
2:35 AM 52.0 °F 50.9 °F 96% 30.28 in 10.0 mi Calm Calm - N/A   Clear
3:15 AM 51.1 °F 50.2 °F 97% 30.27 in 2.0 mi Calm Calm - N/A   Clear
3:35 AM 50.9 °F 50.2 °F 97% 30.27 in 10.0 mi Calm Calm - N/A   Clear
3:55 AM 50.2 °F 49.5 °F 97% 30.28 in 7.0 mi Calm Calm - N/A   Clear
4:15 AM 50.0 °F 49.5 °F 98% 30.28 in 7.0 mi Calm Calm - N/A   Clear
4:35 AM 49.1 °F 48.6 °F 98% 30.28 in 3.0 mi Calm Calm - N/A   Clear
4:55 AM 48.7 °F 48.4 °F 99% 30.29 in 4.0 mi Calm Calm - N/A   Clear
5:15 AM 48.2 °F 47.7 °F 98% 30.29 in 2.0 mi Calm Calm - N/A   Clear
5:35 AM 47.7 °F 47.3 °F 99% 30.29 in 7.0 mi Calm Calm - N/A   Clear
5:55 AM 47.5 °F 47.3 °F 99% 30.29 in 2.5 mi Calm Calm - N/A   Clear
6:15 AM 47.5 °F 47.3 °F 99% 30.29 in 5.0 mi Calm Calm - N/A   Clear
6:35 AM 48.2 °F 48.0 °F 99% 30.29 in 7.0 mi Calm Calm - N/A   Clear
6:55 AM 49.8 °F 49.5 °F 99% 30.29 in 10.0 mi Calm Calm - N/A   Clear
7:15 AM 51.4 °F 50.9 °F 98% 30.29 in 10.0 mi Calm Calm - N/A   Clear
7:35 AM 53.8 °F 52.0 °F 94% 30.29 in 10.0 mi Calm Calm - N/A   Clear
7:55 AM 55.6 °F 51.8 °F 87% 30.29 in 10.0 mi Calm Calm - N/A   Clear
8:15 AM 57.7 °F 52.3 °F 82% 30.30 in 10.0 mi Calm Calm - N/A   Clear
8:35 AM 60.1 °F 52.0 °F 75% 30.30 in 10.0 mi Calm Calm - N/A   Clear
8:55 AM 62.1 °F 52.2 °F 70% 30.29 in 10.0 mi Calm Calm - N/A   Clear
9:15 AM 65.3 °F 50.5 °F 59% 30.28 in 10.0 mi East 3.5 mph - N/A   Clear
9:35 AM 68.0 °F 50.7 °F 54% 30.28 in 10.0 mi East 6.9 mph - N/A   Clear
9:55 AM 69.6 °F 47.3 °F 45% 30.27 in 10.0 mi East 9.2 mph - N/A   Clear
10:15 AM 70.0 °F 44.1 °F 39% 30.27 in 10.0 mi ESE 8.1 mph - N/A   Clear
10:35 AM 71.1 °F 45.3 °F 40% 30.27 in 10.0 mi ESE 8.1 mph - N/A   Clear
10:55 AM 71.8 °F 45.7 °F 39% 30.26 in 10.0 mi ESE 6.9 mph - N/A   Clear
11:15 AM 72.9 °F 44.8 °F 37% 30.26 in 10.0 mi ESE 6.9 mph - N/A   Clear
11:35 AM 73.4 °F 44.1 °F 35% 30.25 in 10.0 mi East 9.2 mph 17.3 mph N/A   Clear
11:55 AM 74.5 °F 46.6 °F 37% 30.24 in 10.0 mi East 12.7 mph 18.4 mph N/A   Clear
12:15 PM 74.8 °F 45.0 °F 34% 30.24 in 10.0 mi East 8.1 mph - N/A   Clear
12:35 PM 74.7 °F 44.8 °F 34% 30.23 in 10.0 mi East 8.1 mph 17.3 mph N/A   Clear
12:55 PM 75.6 °F 45.7 °F 35% 30.22 in 10.0 mi East 12.7 mph 16.1 mph N/A   Clear
1:15 PM 76.3 °F 44.4 °F 32% 30.21 in 10.0 mi East 9.2 mph 17.3 mph N/A   Clear
1:35 PM 76.8 °F 45.7 °F 33% 30.20 in 10.0 mi East 11.5 mph 17.3 mph N/A   Clear
1:55 PM 76.8 °F 45.7 °F 33% 30.19 in 10.0 mi ESE 9.2 mph 19.6 mph N/A   Clear
2:35 PM 77.5 °F 46.2 °F 33% 30.17 in 10.0 mi East 13.8 mph 19.6 mph N/A   Clear
2:55 PM 77.7 °F 46.0 °F 33% 30.17 in 10.0 mi East 12.7 mph 19.6 mph N/A   Clear
3:15 PM 77.5 °F 45.3 °F 32% 30.16 in 10.0 mi ENE 12.7 mph 19.6 mph N/A   Clear
3:35 PM 77.7 °F 45.0 °F 31% 30.15 in 10.0 mi East 15.0 mph 21.9 mph N/A   Clear
3:55 PM 77.2 °F 45.0 °F 32% 30.14 in 10.0 mi East 12.7 mph 19.6 mph N/A   Clear
4:15 PM 78.1 °F 44.8 °F 31% 30.14 in 10.0 mi East 13.8 mph 19.6 mph N/A   Clear
4:35 PM 77.9 °F 45.9 °F 32% 30.13 in 10.0 mi East 11.5 mph 19.6 mph N/A   Clear
4:55 PM 77.2 °F 46.8 °F 34% 30.13 in 10.0 mi East 10.4 mph - N/A   Clear
5:15 PM 77.5 °F 46.4 °F 33% 30.12 in 10.0 mi East 11.5 mph 16.1 mph N/A   Clear
5:35 PM 76.8 °F 46.6 °F 34% 30.12 in 10.0 mi East 10.4 mph 16.1 mph N/A   Clear
5:55 PM 75.7 °F 47.1 °F 36% 30.12 in 10.0 mi East 11.5 mph 17.3 mph N/A   Clear
6:15 PM 73.8 °F 52.2 °F 47% 30.12 in 10.0 mi East 9.2 mph - N/A   Clear
6:35 PM 72.7 °F 56.7 °F 57% 30.11 in 10.0 mi East 9.2 mph - N/A   Scattered Clouds
6:55 PM 71.2 °F 58.1 °F 63% 30.12 in 10.0 mi East 10.4 mph 16.1 mph N/A   Mostly Cloudy
7:15 PM 70.7 °F 59.0 °F 66% 30.12 in 10.0 mi East 9.2 mph - N/A   Mostly Cloudy
7:35 PM 69.8 °F 59.0 °F 68% 30.12 in 10.0 mi East 6.9 mph - N/A   Overcast
7:55 PM 68.9 °F 59.2 °F 71% 30.12 in 10.0 mi East 9.2 mph - N/A   Overcast
8:15 PM 68.0 °F 59.4 °F 74% 30.11 in 10.0 mi East 10.4 mph - N/A   Overcast
8:35 PM 66.7 °F 59.9 °F 79% 30.11 in 7.0 mi ESE 8.1 mph 16.1 mph N/A   Overcast
8:55 PM 65.7 °F 60.3 °F 83% 30.11 in 10.0 mi ESE 5.8 mph - N/A   Overcast
9:15 PM 64.9 °F 60.1 °F 84% 30.11 in 10.0 mi East 3.5 mph - N/A   Overcast
9:35 PM 64.2 °F 60.4 °F 87% 30.12 in 5.0 mi ESE 6.9 mph - N/A   Overcast
9:55 PM 63.1 °F 60.8 °F 92% 30.11 in 5.0 mi ESE 3.5 mph - N/A   Overcast
10:15 PM 63.3 °F 60.6 °F 91% 30.11 in 10.0 mi ESE 3.5 mph - N/A   Overcast
10:35 PM 63.1 °F 59.9 °F 89% 30.11 in 10.0 mi ESE 5.8 mph - N/A   Overcast
10:55 PM 62.6 °F 59.7 °F 90% 30.10 in 10.0 mi East 4.6 mph - N/A   Overcast
11:15 PM 62.6 °F 59.7 °F 90% 30.10 in 10.0 mi Calm Calm - N/A   Overcast
11:35 PM 62.1 °F 59.9 °F 93% 30.09 in 7.0 mi South 3.5 mph - N/A Rain Rain
11:55 PM 61.7 °F 60.1 °F 94% 30.09 in 4.0 mi Calm Calm - N/A Rain Light Rain